Location: Muenchen
(48.1800°N, 11.5800°E)
Time: 22:22:46
(UTC+02:00)

Tiros 1 - Pass Details

Date: 23 June 2018
Orbit: 631 x 664 km, 48.4° (Epoch: 19 July)

Event Time Altitude Azimuth Distance (km) Brightness Sun altitude
Rises 22:11:02 0° 276° (W) 2,937 11.4 -7.3°
Reaches altitude 10° 22:13:21 10° 277° (W) 2,033 10.5 -7.6°
Maximum altitude 22:18:03 89° 187° (S) 650 7.2 -8.1°
Drops below altitude 10° 22:22:47 10° 99° (E) 2,052 9.3 -8.6°
Enters shadow 22:24:16 - 99° (E) 2,627 9.8 -8.7°
